Location: Ferintosh
(52.7647°N, 112.9692°W)
Time: 13:25:46
(UTC+00:00)

Transit 2A Rocket - Pass Details

Date: 23 May 2024
Orbit: 583 x 910 km, 66.7° (Epoch: 14 June)

Event Time Altitude Azimuth Distance (km) Brightness Sun altitude
Rises 21:24:57 0° 309° (NW) 3,452 8.4 51.0°
Reaches altitude 10° 21:28:53 10° 283° (WNW) 2,557 8.2 50.6°
Maximum altitude 21:31:23 13° 258° (WSW) 2,373 8.3 50.3°
Drops below altitude 10° 21:33:55 10° 233° (SW) 2,586 8.6 50.0°
Sets 21:37:58 0° 207° (SSW) 3,529 9.0 49.5°
